Mitchell, SD

7:14 PM CST on November 11, 2019 (GMT -0600)
Mitchell Municipal

Weather History for KMHE - September, 2019

Change the Weather History Date:

Monday, September 30, 2019

  Actual Average Record
Temperature  
Mean Temperature 72 °F 56 °F  
Max Temperature 79 °F 70 °F 93 °F (1991)
Min Temperature 64 °F 43 °F 14 °F (1899)
Degree Days  
Heating Degree Days 0 9  
Month to date heating degree days 39 141  
Since 1 July heating degree days 48 158  
Cooling Degree Days 7 1  
Month to date cooling degree days 149 72  
Year to date cooling degree days 943 817  
Growing Degree Days 16 (Base 50)    
Moisture  
Dew Point 60 °F    
Average Humidity 80    
Maximum Humidity 87    
Minimum Humidity 73    
Precipitation  
Precipitation 0.00 in 0.07 in 1.43 in (1903)
Month to date precipitation 7.63 2.32  
Year to date precipitation 32.67 18.67  
Snow  
Snow 0.00 in - 0.00 in ()
Month to date snowfall 0.0  
Since 1 July snowfall 0.0  
Since 1 September snowfall 0.0  
Snow Depth 0.00 in    
Sea Level Pressure  
Sea Level Pressure 29.75 in    
Wind  
Wind Speed 16 mph (WNW)    
Max Wind Speed 26 mph    
Max Gust Speed 38 mph    
Visibility 10 miles    
Events      
T = Trace of Precipitation, MM = Missing Value Source: NWS Daily Summary

Daily Weather History Graph

Daily Weather History Graph

Search for Another Location

Airport or City:

Astronomy

Sep. 30, 2019 Rise Set
Actual Time 7:28 AM CDT 7:15 PM CDT
Civil Twilight 6:59 AM CDT 7:43 PM CDT
Nautical Twilight 6:26 AM CDT 8:17 PM CDT
Astronomical Twilight 5:52 AM CDT 8:50 PM CDT
Moon 9:37 AM CDT (9/30) 8:47 PM CDT (9/30)
Length of Visible Light 12h 44m
Length of Day
11h 46m
Waxing Crescent, 6% of the Moon is Illuminated
Sep 30
Waxing Crescent
Oct 5
First Quarter
Oct 13
Full
Oct 21
Last Quarter
Oct 27
New

Hourly Weather History & Observations

Time (CDT) Temp. Dew Point Humidity Pressure Visibility Wind Dir Wind Speed Gust Speed Precip Events Conditions
12:53 AM 73.9 °F 69.1 °F 85% 29.61 in 10.0 mi SSE 21.9 mph 31.1 mph N/A   Clear
1:53 AM 75.9 °F 70.0 °F 82% 29.59 in 10.0 mi South 21.9 mph 34.5 mph N/A   Clear
2:53 AM 75.9 °F 70.0 °F 82% 29.57 in 10.0 mi South 21.9 mph 33.4 mph N/A   Clear
3:53 AM 77.0 °F 69.1 °F 76% 29.55 in 10.0 mi South 20.7 mph 32.2 mph N/A   Clear
4:53 AM 77.0 °F 69.1 °F 76% 29.55 in 10.0 mi South 19.6 mph 32.2 mph N/A   Clear
5:53 AM 75.9 °F 69.1 °F 79% 29.58 in 10.0 mi South 12.7 mph 24.2 mph N/A   Clear
6:53 AM 75.9 °F 68.0 °F 76% 29.57 in 10.0 mi South 15.0 mph - N/A   Clear
7:53 AM 75.0 °F 68.0 °F 79% 29.58 in 10.0 mi South 13.8 mph 24.2 mph N/A   Clear
8:53 AM 75.9 °F 68.0 °F 76% 29.60 in 10.0 mi SSW 11.5 mph - N/A   Partly Cloudy
9:43 AM 78.1 °F 68.0 °F 71% 29.64 in 10.0 mi WSW 16.1 mph 24.2 mph N/A   Mostly Cloudy
9:53 AM 73.0 °F 66.9 °F 81% 29.62 in 10.0 mi West 10.4 mph - N/A   Mostly Cloudy
10:08 AM 73.9 °F 66.9 °F 79% 29.64 in 10.0 mi WSW 10.4 mph - N/A   Scattered Clouds
10:38 AM 72.0 °F 66.0 °F 81% 29.66 in 10.0 mi WSW 13.8 mph 23.0 mph N/A   Mostly Cloudy
10:53 AM 70.0 °F 64.9 °F 84% 29.64 in 10.0 mi West 15.0 mph - N/A   Overcast
11:53 AM 69.1 °F 63.0 °F 81% 29.66 in 10.0 mi West 15.0 mph 20.7 mph N/A   Overcast
12:18 PM 70.0 °F 63.0 °F 78% 29.70 in 10.0 mi West 11.5 mph - N/A   Overcast
12:53 PM 70.0 °F 62.1 °F 76% 29.70 in 10.0 mi West 12.7 mph - N/A   Overcast
1:43 PM 66.0 °F 61.0 °F 84% 29.74 in 10.0 mi NW 15.0 mph - N/A   Overcast
1:53 PM 66.0 °F 60.1 °F 81% 29.73 in 10.0 mi NW 16.1 mph - N/A   Overcast
2:29 PM 66.0 °F 60.1 °F 81% 29.76 in 10.0 mi NW 13.8 mph - N/A   Overcast
2:53 PM 66.0 °F 59.0 °F 78% 29.75 in 10.0 mi NW 17.3 mph - N/A   Overcast
3:45 PM 66.0 °F 57.0 °F 73% 29.80 in 10.0 mi NW 15.0 mph - N/A   Overcast
3:53 PM 64.9 °F 57.0 °F 75% 29.79 in 10.0 mi NW 17.3 mph - N/A   Overcast
4:53 PM 64.9 °F 55.9 °F 73% 29.81 in 10.0 mi NNW 17.3 mph - N/A   Overcast
5:53 PM 63.0 °F 55.9 °F 78% 29.84 in 10.0 mi NW 16.1 mph 23.0 mph N/A   Overcast
6:06 PM 63.0 °F 55.9 °F 78% 29.87 in 10.0 mi NNW 13.8 mph - N/A   Overcast
6:13 PM 63.0 °F 55.9 °F 78% 29.87 in 10.0 mi NNW 17.3 mph 23.0 mph N/A   Overcast
6:53 PM 62.1 °F 55.0 °F 78% 29.87 in 10.0 mi North 16.1 mph 25.3 mph N/A   Overcast
7:53 PM 61.0 °F 54.0 °F 78% 29.90 in 10.0 mi North 13.8 mph - N/A   Overcast
8:11 PM 61.0 °F 54.0 °F 78% 29.93 in 10.0 mi North 18.4 mph 26.5 mph N/A   Overcast
8:29 PM 60.1 °F 53.1 °F 78% 29.93 in 10.0 mi North 13.8 mph 25.3 mph N/A   Overcast
8:53 PM 60.1 °F 53.1 °F 78% 29.92 in 10.0 mi North 16.1 mph - N/A   Overcast
9:50 PM 57.2 °F 51.8 °F 82% 29.94 in 10.0 mi North 20.7 mph 34.5 mph N/A   Overcast
9:53 PM 57.0 °F 51.1 °F 81% 29.92 in 10.0 mi North 20.7 mph - N/A   Overcast
10:53 PM 55.9 °F 50.0 °F 80% 29.94 in 10.0 mi North 20.7 mph 29.9 mph N/A   Overcast
11:04 PM 55.9 °F 50.0 °F 80% 29.94 in 10.0 mi North 18.4 mph 29.9 mph N/A   Overcast
11:29 PM 55.0 °F 50.0 °F 83% 29.97 in 10.0 mi North 13.8 mph - N/A   Mostly Cloudy
11:53 PM 54.0 °F 48.9 °F 83% 29.97 in 10.0 mi North 15.0 mph - N/A   Mostly Cloudy